Theta_e
298 298 297 296 296 296 296 296 296 296 296 296 296 296 297 297 299 298 298 297 299 299 300 300 300 301 301 301 302 302 302 302 304 304 306 304 304 303 304 305 310 312 313 313 313 316 318 316 317 317 317 319 318 319
299 298 297 296 296 296 296 296 296 296 296 296 295 296 296 297 298 298 299 299 298 298 300 300 300 300 300 300 301 301 302 302 304 305 305 306 306 306 306 305 305 308 312 313 313 313 315 315 316 317 315 315 318 317
298 295 295 296 295 295 295 296 296 296 295 296 295 296 297 299 298 297 297 299 300 299 299 299 299 297 299 299 299 300 301 301 303 303 304 304 304 305 307 307 308 308 310 312 313 313 313 314 314 316 314 314 314 315
296 295 296 295 295 295 295 295 296 295 296 296 296 296 297 298 298 297 297 297 298 299 298 299 299 299 300 300 300 300 300 300 301 302 303 304 305 304 305 307 307 309 312 312 313 313 315 314 314 315 315 314 313 313
295 296 295 294 295 295 295 295 295 296 296 296 295 296 297 297 297 297 296 297 297 298 300 300 299 297 298 300 301 300 300 300 301 302 302 304 304 305 305 306 307 307 311 314 313 313 314 314 316 316 315 314 313 313
295 294 294 295 295 295 295 294 295 296 295 295 295 296 297 297 296 296 298 297 296 298 299 299 300 300 300 301 302 302 301 301 302 303 302 303 303 304 307 308 307 308 311 312 312 313 315 313 315 315 316 316 314 313
294 294 294 294 294 294 295 295 295 295 295 294 295 296 297 297 296 296 298 300 300 300 299 299 300 301 301 302 302 303 302 302 302 303 303 303 303 304 306 306 305 306 307 309 311 312 312 313 314 314 313 313 313 313
294 294 293 294 294 294 294 295 295 295 294 295 295 296 295 295 295 296 295 298 298 297 298 301 301 301 302 303 303 303 303 303 303 303 303 304 304 303 305 305 307 306 307 308 309 311 312 312 313 313 313 312 314 313
293 293 293 294 294 294 294 294 294 294 294 295 295 294 294 295 296 296 296 297 298 297 299 299 301 302 303 303 302 303 303 304 303 304 304 304 304 306 306 305 306 306 307 308 309 311 312 312 312 313 313 312 314 313
293 293 293 294 294 294 294 294 294 295 295 295 295 295 296 295 296 297 297 298 298 298 297 299 299 302 302 302 303 303 303 304 304 304 304 305 305 305 305 306 307 308 307 308 308 310 311 311 312 311 312 311 312 314
293 292 292 294 294 294 294 293 294 295 295 295 295 296 296 297 297 298 297 297 298 299 297 299 299 300 300 301 303 302 303 303 305 305 306 306 305 304 304 304 305 307 307 307 308 308 309 310 311 312 311 311 312 312
292 292 293 293 294 294 293 294 294 294 295 295 295 295 295 296 296 298 299 299 299 300 299 300 300 300 300 301 302 302 303 303 306 304 306 307 306 306 305 305 306 306 306 306 306 307 308 309 310 312 312 311 311 311
292 292 293 293 293 293 294 294 293 294 295 295 295 294 295 296 297 297 298 300 300 300 301 300 301 300 300 302 302 302 303 303 304 305 306 304 308 306 307 308 307 307 307 307 307 307 307 308 309 310 312 311 311 311
292 292 293 292 292 293 293 293 294 294 294 294 296 297 297 299 298 299 300 301 300 301 301 300 301 302 301 302 302 302 302 303 304 304 303 302 304 304 305 307 307 306 307 309 309 308 308 308 308 309 311 311 311 311
292 292 292 292 293 293 294 293 294 294 294 295 295 296 297 297 298 299 299 300 300 301 300 301 301 302 303 302 302 302 303 302 302 302 301 303 303 305 308 308 308 308 308 308 307 309 310 309 309 310 310 311 311 310
292 292 292 292 293 293 293 294 294 294 295 294 294 295 296 297 299 298 298 298 299 300 299 300 300 300 301 302 303 303 302 303 303 303 305 307 307 308 308 307 307 306 306 307 307 308 309 310 310 310 310 311 311 311
292 292 292 292 293 293 293 294 293 294 294 293 293 294 294 295 296 299 298 298 297 299 300 300 298 299 301 303 303 302 302 301 302 305 307 307 307 306 305 305 305 305 304 304 304 306 308 310 310 309 309 310 310 310
292 291 292 293 293 293 294 294 293 293 293 293 294 295 296 296 296 297 297 298 298 299 298 297 299 300 303 302 303 303 303 304 303 306 306 307 307 305 304 304 304 305 304 303 304 305 306 309 310 309 309 309 310 310
291 292 292 293 293 293 293 293 293 293 293 294 294 294 294 295 296 296 296 296 297 298 298 298 299 299 301 301 302 303 304 304 305 304 304 303 305 305 304 304 305 304 303 303 303 304 305 308 309 309 309 309 309 310
292 292 293 293 293 293 293 293 293 293 294 295 294 295 295 296 296 296 297 297 297 297 298 298 299 299 300 301 302 301 303 304 302 300 301 302 303 303 303 306 306 305 302 302 302 303 304 306 308 309 309 309 309 309
292 292 292 293 293 293 293 294 293 293 295 296 296 296 296 296 297 297 297 298 298 298 299 299 299 299 299 298 298 299 300 299 299 300 299 299 300 302 303 306 306 306 302 302 302 302 303 305 307 309 309 309 309 309
293 293 293 292 293 293 293 293 294 295 294 296 296 297 297 297 298 298 298 299 299 299 300 299 299 299 298 299 300 299 298 297 297 298 298 299 301 303 303 305 304 305 301 302 301 302 303 304 305 306 309 309 309 309
293 293 292 293 293 293 293 293 294 294 296 296 296 297 297 298 298 298 298 299 299 300 300 299 299 299 299 299 298 298 297 297 298 299 299 299 300 303 303 302 304 303 301 301 301 301 302 303 304 304 305 307 308 309
292 293 293 293 292 293 294 294 294 296 296 296 296 295 297 298 297 297 297 298 299 300 300 300 299 299 298 299 298 298 298 297 297 298 299 298 299 302 303 302 303 303 303 302 301 301 301 301 302 303 304 304 305 306
292 292 293 293 294 295 296 296 296 297 296 296 296 296 297 297 298 297 297 298 299 299 299 299 299 298 298 298 299 298 298 297 297 297 298 298 299 302 303 302 305 303 304 303 302 301 301 301 301 302 302 303 304 304
294 294 293 296 296 297 297 296 296 296 296 296 297 298 297 297 296 297 297 298 299 298 299 299 298 298 298 298 298 299 299 299 299 299 298 298 298 299 301 302 301 304 305 303 302 301 300 300 301 301 301 302 302 303
295 295 294 294 295 296 296 296 296 296 297 296 297 297 297 295 296 296 298 298 297 298 297 298 298 300 300 298 298 297 297 297 298 298 299 298 298 297 299 302 302 303 307 305 303 302 301 300 300 300 300 300 301 302
295 295 296 295 295 295 295 296 296 297 297 297 297 297 296 297 297 298 298 297 298 296 296 298 299 299 298 298 298 298 297 297 297 297 298 299 299 299 299 302 302 302 305 306 304 302 301 300 300 299 299 299 300 300
294 295 295 295 296 296 296 296 296 296 297 296 296 297 296 297 297 297 298 296 296 297 297 298 298 298 298 298 298 298 297 297 297 297 297 298 301 299 298 301 303 302 303 305 305 303 303 302 301 300 299 299 299 299
294 295 296 295 295 294 296 296 297 296 296 296 296 297 296 296 296 297 297 296 296 296 296 297 297 298 298 299 299 298 297 297 297 297 297 297 299 299 299 300 303 303 302 303 304 302 303 304 303 300 299 299 299 299
294 294 294 295 294 295 295 294 294 294 294 295 295 295 296 296 296 296 296 296 296 296 296 296 296 296 296 297 297 297 297 297 297 297 297 297 297 298 300 299 301 303 302 302 303 303 302 302 303 301 300 300 299 299
293 293 294 294 294 294 294 294 295 295 295 294 295 294 294 295 295 296 296 296 296 296 296 296 296 296 296 297 297 297 297 297 297 297 297 297 298 298 300 299 299 302 303 302 302 303 302 301 301 302 301 300 300 300
294 294 294 294 294 294 294 293 293 293 293 294 295 295 295 296 296 296 296 295 295 295 295 295 295 295 296 297 297 297 297 297 298 298 298 299 299 298 299 299 298 299 302 303 302 302 302 301 301 301 302 301 300 301
Wind_Speed
33 29 26 25 26 27 29 29 31 33 33 31 32 34 34 28 18 14 6 23 15 5 3 13 13 14 16 20 8 7 5 10 5 5 4 8 8 10 15 20 8 11 11 7 9 6 11 13 6 16 7 16 4 7
38 30 22 25 28 28 29 31 32 33 32 30 31 32 32 23 12 12 11 6 3 7 4 7 18 21 19 19 15 15 11 5 1 3 5 4 5 5 13 16 15 15 9 7 13 16 6 27 16 15 3 3 6 8
25 16 21 26 28 29 31 32 33 33 31 28 27 30 28 13 12 13 12 7 11 8 14 23 20 23 24 27 28 19 22 21 12 8 2 2 5 4 6 13 14 20 15 14 14 16 11 34 32 23 19 11 11 8
20 18 24 25 27 30 31 32 32 29 26 25 26 26 24 15 12 13 13 11 11 3 3 7 12 21 18 24 31 33 33 26 20 15 10 6 5 11 5 7 9 10 11 23 21 16 16 33 36 32 25 17 10 7
18 21 23 25 28 29 29 29 27 27 23 23 26 22 21 14 10 11 14 15 14 10 3 7 17 30 29 25 28 34 31 27 25 11 5 3 4 4 6 7 11 9 9 5 16 19 21 25 30 21 26 20 20 11
20 22 23 25 26 27 24 25 26 23 22 24 21 18 15 10 8 7 4 9 17 18 5 4 9 12 15 15 28 27 29 28 25 8 5 6 12 1 3 3 8 23 21 28 11 30 28 37 28 17 20 21 22 14
20 21 22 25 23 21 22 23 23 22 22 20 17 15 12 8 11 11 2 2 4 13 4 3 4 8 16 21 22 18 24 23 20 12 10 13 12 7 3 10 14 24 21 25 20 31 21 25 7 4 10 14 16 15
19 22 23 21 18 21 22 22 21 20 19 17 13 12 11 12 14 18 21 15 11 4 4 3 4 5 11 10 5 17 13 16 12 9 5 5 7 9 6 13 23 26 23 23 19 17 14 16 17 3 9 5 14 14
19 21 20 17 17 19 19 19 19 17 17 13 11 9 9 10 8 9 11 13 15 11 3 4 3 3 10 10 10 9 12 5 9 5 5 5 4 6 13 14 23 23 20 21 19 13 14 19 12 17 20 7 15 15
20 19 16 14 16 18 18 18 16 13 13 11 9 6 5 5 10 9 5 5 10 13 12 4 6 4 4 3 5 5 8 3 4 6 11 6 6 28 29 23 23 22 26 24 19 17 21 25 13 15 19 17 11 14
17 16 14 14 17 18 18 16 13 10 8 10 7 5 7 5 4 5 6 7 7 3 6 7 14 7 7 4 4 6 2 3 4 4 7 4 6 18 39 35 36 35 31 26 22 21 22 23 20 13 10 12 11 15
15 15 13 15 16 16 17 13 13 11 7 7 5 3 3 4 5 6 5 4 4 4 8 4 8 10 7 7 4 5 3 3 5 7 4 4 6 21 25 30 34 33 30 31 29 26 25 27 24 18 11 11 14 15
14 14 14 15 16 12 10 9 11 12 10 5 3 3 5 6 7 5 6 3 3 3 8 5 4 6 6 4 3 3 3 4 4 1 3 4 4 7 16 4 8 18 27 32 32 31 32 30 25 20 17 12 13 15
14 14 15 15 14 13 11 11 13 13 6 5 5 4 3 4 4 4 4 1 1 4 9 9 4 4 6 4 3 4 4 3 2 3 7 3 12 15 14 6 4 7 9 12 17 23 30 29 25 24 20 19 11 17
13 13 14 12 12 13 13 13 14 12 7 5 3 4 4 3 6 7 2 2 2 3 4 1 3 4 3 3 3 2 2 4 5 5 3 7 18 11 1 2 4 8 10 13 16 18 24 26 25 25 24 25 22 16
13 12 14 12 12 13 13 15 17 8 2 3 4 3 8 3 2 8 2 5 8 3 3 1 1 2 4 2 5 5 4 5 3 4 10 4 3 4 5 6 8 9 9 12 14 17 14 23 26 23 22 26 24 22
13 14 10 13 16 13 13 16 7 3 2 3 4 9 11 10 5 6 4 3 0 3 0 1 3 8 3 3 3 5 5 4 5 12 4 4 6 5 7 9 11 10 10 12 14 15 17 14 23 23 25 29 31 28
18 16 11 13 18 14 15 6 3 2 4 8 4 7 9 10 10 9 5 4 4 4 3 3 2 2 4 3 3 3 8 15 18 10 12 11 6 6 9 10 11 10 13 15 13 13 16 13 24 28 27 27 29 27
20 14 14 18 21 12 7 7 5 3 9 6 12 16 10 13 14 14 13 11 9 8 3 2 4 4 4 4 4 14 19 21 11 8 9 12 14 10 12 11 8 12 17 17 14 13 15 19 18 29 29 28 30 28
17 14 17 19 18 7 4 3 5 4 3 8 12 12 14 14 13 11 9 9 9 5 5 4 5 9 14 19 19 21 25 13 8 9 10 4 3 8 10 7 9 16 20 14 12 12 15 20 17 32 33 31 32 32
16 16 15 15 12 8 3 4 5 5 5 6 9 13 7 10 11 12 12 14 11 5 4 14 14 19 19 23 20 21 10 5 6 9 10 11 9 9 8 6 10 19 19 14 10 11 17 21 26 27 37 38 33 31
14 17 11 14 5 6 6 8 5 2 3 6 5 7 5 3 7 12 9 8 6 11 12 11 11 10 17 19 11 10 8 10 10 11 10 8 10 9 10 7 13 17 16 11 8 9 10 17 18 27 34 34 33 33
16 15 6 6 5 5 4 10 7 6 3 2 3 2 3 2 4 3 2 6 8 13 15 5 9 17 21 20 15 12 8 7 6 6 7 8 9 6 8 11 8 10 12 7 4 6 13 19 20 22 28 33 35 37
12 8 6 6 11 3 7 7 7 6 6 4 4 3 3 3 4 2 4 4 12 14 17 22 21 18 13 11 9 5 5 7 8 8 7 8 7 5 8 8 7 6 11 9 6 2 4 10 18 21 22 26 31 34
5 7 6 6 10 7 6 5 5 5 3 4 4 3 2 3 2 3 3 4 13 15 15 11 11 11 8 5 6 4 6 5 7 9 6 8 7 5 6 6 6 7 10 10 9 6 0 8 14 17 21 25 28 29
9 11 7 8 4 4 5 4 5 6 4 3 4 3 4 3 3 5 3 2 3 3 3 8 7 6 5 4 2 1 4 7 7 8 9 9 9 9 10 11 9 6 12 13 10 5 1 6 10 13 15 19 22 27
5 4 5 5 3 3 2 2 5 3 4 4 2 3 3 3 4 3 2 3 2 2 2 2 4 4 7 4 3 6 8 9 11 11 10 9 9 8 8 10 12 8 7 12 12 8 5 1 8 11 16 19 23 25
1 5 4 8 4 5 3 3 3 4 3 3 5 4 4 4 2 1 2 3 6 3 3 4 6 7 7 3 2 7 10 12 12 12 11 8 9 9 8 8 11 9 3 6 11 6 2 3 6 9 13 19 22 23
2 2 4 2 2 2 2 3 3 5 5 6 3 3 3 4 4 2 3 5 6 7 6 6 7 6 7 7 8 10 11 14 15 15 15 14 11 8 10 8 11 12 6 6 10 7 4 4 3 4 9 14 17 20
3 5 2 3 3 3 3 4 1 3 6 6 5 3 5 9 11 12 13 14 15 16 15 14 14 13 14 12 12 13 17 17 15 12 14 13 11 11 9 8 9 11 9 5 6 7 3 1 1 4 8 12 15 18
3 4 1 3 3 2 2 4 5 7 7 6 9 9 8 7 14 19 14 14 15 16 17 18 19 18 18 20 18 17 15 15 13 12 12 12 12 13 9 6 6 8 9 7 5 5 1 4 3 2 6 10 14 18
4 3 1 1 0 1 3 1 2 2 2 3 3 5 2 2 4 4 4 4 3 4 7 11 13 15 14 15 16 15 16 15 15 16 15 13 12 12 11 8 5 6 7 7 4 3 2 4 6 6 7 10 13 16
2 2 1 1 1 0 2 4 1 2 3 3 3 5 5 3 3 4 4 7 6 6 7 9 11 13 15 16 16 14 13 12 10 12 14 12 12 14 12 10 9 6 6 7 5 1 3 4 6 8 9 10 12 15
Wind_Direction
252 253 261 269 279 284 287 290 292 293 293 295 298 300 303 298 294 277 264 184 164 159 176 209 219 225 233 213 232 268 277 233 186 193 228 221 242 239 234 236 263 214 195 187 206 237 249 257 257 196 204 275 343 286
249 244 257 269 278 284 286 289 289 291 287 290 294 297 300 280 264 270 250 257 217 230 227 225 233 241 246 252 271 250 237 257 238 200 227 217 240 256 231 246 224 242 231 203 197 216 226 241 277 233 251 342 308 303
246 234 256 265 277 283 286 287 287 286 288 286 290 295 301 259 244 245 247 224 204 242 269 256 256 254 238 234 227 246 244 242 233 243 220 224 275 12 276 259 255 234 198 233 221 229 222 257 258 264 284 272 301 277
248 253 259 271 277 281 284 286 287 285 281 283 287 296 295 241 240 247 244 242 223 222 259 272 266 256 276 255 240 239 247 247 253 240 228 223 232 199 241 276 294 283 280 210 233 237 222 227 248 252 254 274 271 275
246 256 266 274 281 283 286 286 284 281 276 280 284 286 286 220 237 255 256 248 238 215 278 278 279 277 271 254 250 235 235 235 234 230 237 226 194 252 249 266 262 248 261 275 235 219 231 251 246 267 234 243 245 272
253 264 272 281 281 282 284 283 281 278 278 276 281 273 252 241 219 270 284 258 246 232 254 285 297 278 245 236 226 218 222 226 223 214 207 218 229 172 268 250 243 262 250 234 246 266 229 225 238 293 239 250 238 248
260 269 277 278 281 282 286 281 276 273 276 277 272 262 240 246 227 222 221 167 180 201 223 267 264 273 236 217 212 215 217 219 219 227 232 243 248 243 252 248 246 269 284 283 264 258 296 261 157 306 303 254 235 227
263 274 272 274 274 281 280 278 276 273 273 272 255 243 242 244 242 249 241 236 252 228 256 257 256 257 196 200 199 214 211 211 208 214 226 231 245 209 248 247 258 257 261 272 274 256 271 274 257 334 323 227 202 196
272 272 273 268 276 278 281 274 274 274 272 243 235 241 245 236 233 251 260 243 237 215 226 202 266 273 180 203 196 193 193 209 203 212 216 198 217 225 226 235 244 256 261 265 276 267 263 276 239 246 256 252 216 197
270 266 270 269 273 280 274 276 271 267 250 211 220 205 223 214 221 242 240 205 206 205 217 228 251 269 265 181 221 206 179 215 218 210 162 212 240 239 237 234 246 248 243 254 261 254 255 271 269 249 242 261 247 222
262 264 267 268 274 274 271 267 255 224 207 199 198 219 217 207 212 210 221 207 188 218 218 211 215 228 232 232 207 157 246 211 236 196 196 203 246 237 245 238 238 238 248 251 253 261 260 262 263 258 236 234 224 224
259 265 261 267 275 271 272 242 201 213 204 201 192 212 247 207 214 230 197 177 218 222 183 202 213 216 240 235 215 199 221 197 245 140 184 225 248 253 241 240 241 238 236 241 245 249 258 257 257 253 244 227 233 233
259 265 262 267 266 256 242 227 212 209 211 217 210 212 194 199 233 216 179 185 199 219 167 150 170 181 215 235 224 214 242 240 134 200 283 245 160 268 270 271 216 220 228 234 236 238 244 246 254 252 241 230 227 235
259 265 267 264 251 230 231 218 206 192 196 202 218 204 216 209 238 222 200 183 155 272 151 166 197 194 212 188 222 215 227 278 257 257 233 216 258 268 280 181 236 275 268 254 241 233 235 238 244 245 235 223 226 229
259 263 265 246 236 219 202 207 206 216 216 198 193 243 222 237 268 305 357 23 354 351 50 164 219 238 211 217 188 218 257 235 223 240 280 265 258 233 200 313 302 283 268 257 244 239 236 233 229 232 226 221 222 224
256 256 244 223 203 186 190 188 202 233 215 158 223 269 261 267 239 280 71 24 13 349 351 188 278 277 237 236 183 200 222 226 248 225 264 254 340 303 294 296 289 284 283 263 246 235 247 230 221 221 218 216 219 222
239 232 231 221 189 185 181 182 202 230 172 214 244 250 270 275 273 248 285 181 250 20 9 235 218 223 258 206 223 193 223 234 287 304 246 231 254 276 289 286 287 299 298 279 269 252 236 227 214 209 210 215 213 216
222 223 207 187 172 165 177 189 188 200 233 235 256 255 236 249 272 285 289 247 225 196 171 235 246 257 262 238 235 252 260 262 265 278 271 263 268 299 297 288 287 303 307 296 275 255 232 216 210 206 209 210 203 206
209 201 184 179 177 158 163 184 197 233 218 235 248 262 270 271 269 271 274 266 245 233 265 241 247 241 231 237 270 290 296 298 278 290 283 282 276 271 284 291 312 321 310 294 276 249 232 213 213 201 199 201 201 192
187 179 180 180 181 175 167 185 195 224 238 219 230 256 250 254 263 278 266 236 218 200 212 222 226 251 278 289 296 303 296 257 270 298 302 339 296 273 287 291 320 324 316 297 281 250 216 215 199 198 200 203 200 191
177 174 173 175 184 195 189 187 210 225 244 227 241 238 250 263 258 254 252 234 202 212 232 232 247 285 297 305 282 277 264 243 274 279 293 296 292 297 302 302 306 313 309 301 283 253 217 209 205 193 199 205 204 198
172 176 163 185 169 187 237 214 220 227 234 258 266 218 253 248 251 253 241 193 229 230 226 248 253 274 294 300 290 264 283 282 284 295 296 306 310 314 304 295 311 304 306 297 275 223 227 202 212 206 202 201 205 203
160 163 144 155 179 222 243 201 187 202 221 226 296 258 238 234 193 180 243 238 242 242 221 199 225 283 276 281 283 294 296 291 308 312 309 312 303 307 303 289 289 309 322 303 287 221 210 200 194 197 201 202 202 208
162 162 174 204 200 224 178 198 213 205 212 178 204 234 220 196 145 220 251 256 249 253 224 227 239 260 281 271 283 308 294 301 318 330 335 320 324 311 328 320 309 341 4 4 0 284 194 187 186 188 190 194 198 202
158 206 208 208 203 211 199 187 189 203 200 189 200 246 156 153 222 236 241 257 239 236 241 253 241 251 251 278 303 312 321 335 337 331 346 331 339 359 349 358 311 345 23 3 3 0 150 165 178 185 188 195 197 198
211 188 207 195 185 187 196 174 191 191 169 184 209 119 153 193 229 240 234 269 21 342 238 236 227 212 216 239 256 308 340 359 346 339 338 342 343 345 348 0 355 352 22 360 358 10 109 166 170 181 189 197 201 198
183 190 199 216 235 215 171 196 201 177 171 187 158 164 186 230 242 246 286 316 332 303 244 225 192 163 148 131 68 29 13 8 359 343 336 337 341 332 338 349 355 359 25 352 2 3 352 173 165 177 187 191 197 198
195 175 191 175 209 198 185 175 175 177 186 185 159 186 202 215 258 103 245 324 354 329 269 218 190 176 159 154 21 358 357 358 356 350 357 5 14 16 6 354 358 4 35 4 354 357 26 135 169 181 185 187 187 191
206 193 145 164 152 188 225 205 207 216 194 178 184 209 224 228 252 249 274 318 333 336 318 289 274 263 262 283 308 324 330 341 342 343 342 356 4 358 360 354 5 15 32 33 350 2 12 72 90 164 174 182 182 181
180 183 162 164 169 224 215 213 257 176 202 229 256 274 269 269 285 293 287 289 291 291 290 284 279 276 273 275 281 284 295 307 314 310 314 318 322 322 338 352 355 9 20 49 4 360 56 81 88 156 169 168 173 176
157 183 215 213 209 221 212 243 257 254 242 241 241 249 264 292 294 298 291 282 281 282 282 282 280 278 280 282 282 284 285 290 292 293 302 296 295 303 308 320 325 342 358 21 38 9 95 145 175 189 171 170 170 171
190 229 218 198 347 191 314 270 283 284 242 236 244 215 231 246 262 265 265 250 258 287 299 297 294 291 283 276 275 274 271 261 251 263 272 274 275 280 283 270 272 306 325 344 7 18 284 159 161 183 192 181 178 173
204 229 259 326 279 170 51 355 289 281 244 252 238 212 220 242 263 246 241 234 249 280 297 304 300 292 276 272 276 280 276 269 259 246 249 253 254 258 265 265 244 250 278 297 308 313 241 187 167 173 177 188 179 176